[[{"header":{"parameterUnit":"m.s-1","parameterCategory":2,"la1":30.2991,"la2":30.254,"lo1":-89.0895,"lo2":-89.0444,"dy":0.0017,"dx":0.0017,"nx":28,"ny":28,"refTime":"2025-12-18T09:00:00:Z","depth":"0","parameterNumber":2,"parameterNumberName":"U-component_of_CURRENTS"},"data":[0,0,0,0,0,0,0,0,0,0,0,0,0,0,0,0,0,0,0,0,0,0,0,0,0,0,0,0,0,0,0,0,0,0,0,0,0,0,0,0,0,0,0,0,0,0,0,0,0,0,0,0,0,0,0,0,0,0,0.185,0.185,0,0.183,0.1829,0.1829,0.1802,0.1802,0.1801,0.1801,0.1779,0.1779,0.1779,0,0,0,0,0,0,0,0,0,0,0,0,0,0.1945,0.1943,0.185,0.185,0.1849,0.183,0.1829,0.1829,0.1802,0.1801,0.1801,0.18,0.1779,0.1779,0.1779,0,0,0,0,0,0,0,0,0,0,0,0,0,0.1912,0.1942,0.185,0.1833,0.1832,0.183,0.1829,0.1829,0.1802,0.1801,0.1801,0.18,0.1779,0.1779,0.1779,0.1791,0,0,0.1778,0.1778,0,0,0,0,0,0,0,0,0.1914,0.1908,0.1836,0.1835,0.1833,0.1818,0.1855,0.1816,0.1802,0.1813,0.1801,0.18,0.1792,0.1791,0.1789,0.179,0.1789,0.1778,0.1778,0.1778,0.1778,0,0,0,0,0,0,0,0.1916,0.191,0.1842,0.1836,0.1834,0.1854,0.1848,0.1848,0.1807,0.1812,0.181,0.1808,0.1791,0.1789,0.1788,0.1789,0.1778,0.1778,0.1778,0.1778,0.1813,0.1814,0,0,0,0,0,0,0.1914,0.1911,0.1842,0.1841,0.1872,0.1853,0.1846,0.1823,0.1807,0.1804,0.1809,0.1807,0.179,0.1788,0.1787,0.1814,0.1778,0.1778,0.1778,0.1812,0.1814,0.1815,0,0,0,0,0,0,0.1916,0.1908,0.1843,0.1877,0.187,0.1851,0.1826,0.1823,0.182,0.1804,0.1801,0.1809,0.1789,0.1788,0.1797,0.1813,0.1778,0.1777,0.1811,0.1813,0.1814,0.186,0,0,0,0,0,0,0.1919,0.1908,0.1902,0.1876,0.1868,0.1852,0.1827,0.1823,0.182,0.1818,0.1804,0.1801,0.1789,0.1797,0.1797,0.1812,0.1777,0.181,0.1812,0.1814,0.1857,0.1863,0.1868,0,0,0,0,0,0.1922,0.1917,0.1902,0.1894,0.1856,0.1853,0.1852,0.1837,0.1821,0.183,0.182,0.1801,0.181,0.1798,0.1797,0.1812,0.1809,0.1811,0.1814,0.1855,0.1862,0.1868,0,0,0,0,0,0,0.196,0.1913,0.1896,0.1877,0.187,0.1848,0.1856,0.1841,0.184,0.1834,0.1816,0.1814,0.183,0.1817,0.1805,0.183,0.1806,0.1808,0.1838,0.1844,0.185,0.186,0.1777,0,0,0,0,0,0.1964,0.1943,0.1913,0.1901,0.1897,0.1876,0.1875,0.1861,0.1851,0.1849,0.1839,0.1833,0.184,0.1838,0.1842,0.1853,0.187,0.1862,0.1868,0.1873,0.1881,0.1944,0.1956,0.1823,0.1823,0.1823,0,0,0.1975,0.1948,0.1936,0.1909,0.1899,0.19,0.1874,0.1871,0.1876,0.1848,0.1858,0.1855,0.185,0.1867,0.1872,0.1855,0.1917,0.1876,0.188,0.1886,0.1948,0.1961,0.1973,0.1824,0.1824,0.1824,0,0,0.1994,0.1964,0.1955,0.195,0.1935,0.1924,0.1924,0.1905,0.1902,0.1912,0.1896,0.1908,0.1907,0.1911,0.1912,0.1952,0.1949,0.1945,0.1974,0.2035,0.2047,0.2057,0.2085,0.2097,0.1941,0.1941,0.1941,0,0.2015,0.1986,0.1961,0.196,0.1958,0.1935,0.194,0.1941,0.1929,0.1934,0.1923,0.194,0.1935,0.196,0.1971,0.1965,0.1988,0.1948,0.2043,0.2054,0.2064,0.209,0.2104,0.1944,0.1943,0.1943,0.1943,0,0.2022,0.201,0.2011,0.1992,0.1997,0.1996,0.1989,0.1994,0.1987,0.1985,0.201,0.2009,0.2018,0.2018,0.2006,0.2064,0.2053,0.205,0.2028,0.2081,0.2104,0.2117,0.1947,0.1946,0.1945,0.1945,0,0,0.2033,0.2016,0.2017,0.201,0.2008,0.2005,0.2029,0.2036,0.2041,0.2054,0.207,0.2095,0.209,0.2092,0.2079,0.2122,0.2207,0.2115,0.2117,0.2144,0.2326,0.2138,0.2134,0.2226,0.2228,0.2231,0.2309,0,0.2044,0.2041,0.2037,0.2044,0.2038,0.204,0.206,0.2069,0.2075,0.2088,0.2106,0.2117,0.2119,0.2113,0.2169,0.2194,0.2246,0.2185,0.2269,0.2271,0.21,0.2144,0.1962,0.2001,0.2322,0.2325,0.2326,0,0.204,0.2037,0.2041,0.2044,0.2044,0.2054,0.2067,0.2081,0.2108,0.2114,0.2146,0.215,0.2206,0.2195,0.2309,0.2271,0.2311,0.2335,0.2338,0.2157,0.2107,0.2003,0.2013,0.1898,0.2346,0.2345,0.2343,0,0.2026,0.2035,0.2034,0.2035,0.2044,0.2054,0.2064,0.2087,0.21,0.2125,0.2139,0.2202,0.2229,0.231,0.2355,0.2348,0.2468,0.2464,0.2338,0.2325,0.218,0.2147,0.2088,0.2565,0.2565,0.2565,0.2565,0,0.2016,0.2013,0.2023,0.2017,0.2027,0.2037,0.205,0.2067,0.2094,0.2112,0.2149,0.2172,0.2266,0.233,0.238,0.2383,0.2501,0.2348,0.2337,0.2185,0.2153,0.2051,0.2031,0.2568,0.2567,0.2567,0.2566,0,0.1988,0.1992,0.1991,0.2007,0.2013,0.2016,0.2043,0.2054,0.208,0.2105,0.2116,0.2182,0.2242,0.2309,0.2419,0.2386,0.2308,0.2395,0.2179,0.2137,0.1841,0.183,0.1747,0.1711,0.2256,0.2251,0.2248,0,0.1967,0.1963,0.1981,0.1987,0.1993,0.2003,0.2015,0.2041,0.2054,0.2104,0.2118,0.2171,0.2193,0.2245,0.2188,0.22,0.2186,0.2016,0.1952,0.1789,0.1774,0.1751,0.1729,0.1799,0.1792,0.1787,0.1782,0,0.1943,0.1952,0.196,0.1973,0.1983,0.1992,0.2008,0.2016,0.2046,0.2061,0.2081,0.2098,0.2078,0.1962,0.1915,0.1904,0.1829,0.1892,0.1815,0.1469,0.1358,0.1327,0.1773,0.1732,0.1737,0.1741,0.1743,0.1745,0.1935,0.1942,0.1958,0.1963,0.1975,0.1977,0.1959,0.1974,0.1977,0.1955,0.2012,0.1951,0.177,0.1647,0.1619,0.1325,0.1474,0.1229,0.1253,0.1264,0.1135,0.1423,0.1295,0.1298,0.13,0.1301,0.1303,0,0.1921,0.1936,0.1949,0.1951,0.1942,0.1953,0.1949,0.1905,0.1872,0.1838,0.1815,0.1557,0.1351,0.1189,0.0838,0.0705,0.0736,0.0663,0.0631,0.0667,0.099,0.0869,0.0529,0.0529,0.0529,0.0529,0.0529,0.0529,0.192,0.1922,0.1925,0.191,0.1905,0.1852,0.1829,0.1763,0.1704,0.1512,0.133,0.1252,0.0946,0.0536,0.0244,0.0233,0.0239,0.0149,0.0271,0.0496,0.0553,0.0607,0.0486,0.0071,0.0071,-0.0115,-0.0117,-0.0118]},{"header":{"parameterUnit":"m.s-1","parameterCategory":2,"la1":30.2991,"la2":30.254,"lo1":-89.0895,"lo2":-89.0444,"dy":0.0017,"dx":0.0017,"nx":28,"ny":28,"refTime":"2025-12-18T09:00:00:Z","depth":"0","parameterNumber":3,"parameterNumberName":"V-component_of_CURRENTS"},"data":[0,0,0,0,0,0,0,0,0,0,0,0,0,0,0,0,0,0,0,0,0,0,0,0,0,0,0,0,0,0,0,0,0,0,0,0,0,0,0,0,0,0,0,0,0,0,0,0,0,0,0,0,0,0,0,0,0,0,-0.0045,-0.0045,0,-0.0045,-0.0045,-0.0045,-0.0051,-0.0051,-0.0051,-0.0051,-0.0045,-0.0045,-0.0044,0,0,0,0,0,0,0,0,0,0,0,0,0,-0.005,-0.005,-0.0045,-0.0045,-0.0045,-0.0045,-0.0045,-0.0045,-0.0051,-0.0051,-0.0051,-0.0051,-0.0045,-0.0045,-0.0044,0,0,0,0,0,0,0,0,0,0,0,0,0,-0.0049,-0.005,-0.0045,-0.0047,-0.0047,-0.0045,-0.0045,-0.0045,-0.0051,-0.0051,-0.0051,-0.0051,-0.0045,-0.0045,-0.0044,-0.0039,0,0,-0.0043,-0.0043,0,0,0,0,0,0,0,0,-0.005,-0.0049,-0.0047,-0.0047,-0.0047,-0.0047,-0.0044,-0.0042,-0.0051,-0.005,-0.0051,-0.0052,-0.0045,-0.0044,-0.0045,-0.0038,-0.0038,-0.0043,-0.0043,-0.0043,-0.0042,0,0,0,0,0,0,0,-0.005,-0.0049,-0.0045,-0.0047,-0.0047,-0.0048,-0.0048,-0.0044,-0.0047,-0.005,-0.0051,-0.005,-0.0045,-0.0045,-0.0045,-0.0038,-0.0043,-0.0043,-0.0042,-0.0042,-0.0028,-0.0028,0,0,0,0,0,0,-0.0048,-0.0049,-0.0045,-0.0045,-0.0048,-0.0048,-0.0048,-0.0048,-0.0047,-0.0047,-0.0049,-0.005,-0.0046,-0.0045,-0.0045,-0.0031,-0.0043,-0.0042,-0.0042,-0.0029,-0.0028,-0.0028,0,0,0,0,0,0,-0.0048,-0.0048,-0.0045,-0.0047,-0.0047,-0.0048,-0.0047,-0.0048,-0.005,-0.0046,-0.0046,-0.0051,-0.0046,-0.0045,-0.0038,-0.0031,-0.0042,-0.0042,-0.0029,-0.0028,-0.0028,-0.0009,0,0,0,0,0,0,-0.0048,-0.0048,-0.0052,-0.0047,-0.0046,-0.0044,-0.0047,-0.0048,-0.0049,-0.0049,-0.0048,-0.0047,-0.0046,-0.0038,-0.0037,-0.0031,-0.0041,-0.0029,-0.0029,-0.0028,-0.001,-0.0008,-0.0007,0,0,0,0,0,-0.0049,-0.0054,-0.0052,-0.0052,-0.005,-0.0043,-0.0043,-0.0045,-0.0048,-0.0048,-0.0045,-0.0048,-0.0036,-0.0038,-0.0036,-0.003,-0.0029,-0.0029,-0.0028,-0.001,-0.0008,-0.0007,0,0,0,0,0,0,-0.0064,-0.0054,-0.0053,-0.0056,-0.0049,-0.0044,-0.0046,-0.0046,-0.0044,-0.0042,-0.0043,-0.0042,-0.0033,-0.0036,-0.0037,-0.0027,-0.0034,-0.0034,-0.0021,-0.0019,-0.0018,-0.0005,-0.0041,0,0,0,0,0,-0.0067,-0.0065,-0.0056,-0.0059,-0.0054,-0.005,-0.0049,-0.0045,-0.004,-0.004,-0.0039,-0.0037,-0.0031,-0.0028,-0.0025,-0.0017,0.0014,-0.0014,-0.0013,-0.0011,-0.0001,0.006,0.0069,-0.0027,-0.0027,-0.0027,0,0,-0.0074,-0.0068,-0.0068,-0.0061,-0.0056,-0.0046,-0.005,-0.0043,-0.0034,-0.0039,-0.0031,-0.003,-0.0028,-0.0019,-0.0016,-0.0019,0.0032,-0.0011,-0.001,0.0,0.0061,0.0071,0.0079,-0.0027,-0.0027,-0.0027,0,0,-0.0078,-0.0079,-0.0075,-0.0066,-0.0053,-0.0047,-0.0044,-0.0035,-0.0031,-0.002,-0.0022,-0.0013,-0.0011,-0.0003,-0.0001,0.0011,0.0039,0.0005,0.0025,0.0083,0.0093,0.0101,0.0157,0.017,0.0006,0.0006,0.0006,0,-0.0089,-0.0075,-0.0073,-0.0062,-0.0051,-0.0046,-0.0031,-0.0028,-0.0018,-0.0006,-0.0015,0.0005,0.0,0.0023,0.0022,0.0017,0.0056,0.0019,0.0088,0.0097,0.0105,0.0161,0.0175,0.0007,0.0007,0.0007,0.0007,0,-0.008,-0.007,-0.0066,-0.0047,-0.0039,-0.0024,-0.0012,-0.0004,0.0001,0.0011,0.0034,0.0034,0.005,0.0043,0.0035,0.0082,0.0094,0.0085,0.0088,0.0116,0.0173,0.0187,0.0008,0.0008,0.0008,0.0007,0,0,-0.0094,-0.0065,-0.0062,-0.0039,-0.0024,-0.0008,0.0002,0.0027,0.0049,0.0053,0.0089,0.0084,0.0091,0.0095,0.0089,0.0128,0.021,0.0131,0.0133,0.0195,0.0351,0.0324,0.0338,0.0221,0.0224,0.0226,0.0369,0,-0.0083,-0.0049,-0.0043,-0.0009,0.0017,0.0025,0.0039,0.0059,0.0074,0.0107,0.0116,0.0141,0.0109,0.0124,0.0158,0.0205,0.0249,0.0173,0.0307,0.0311,0.0291,0.0354,0.0351,0.0475,0.0383,0.0386,0.0387,0,-0.0065,-0.0042,-0.0005,0.0038,0.0048,0.0061,0.0104,0.0119,0.0152,0.0164,0.019,0.02,0.025,0.0218,0.0325,0.0283,0.0318,0.0348,0.0354,0.0334,0.0311,0.043,0.0505,0.0476,0.041,0.0408,0.0407,0,-0.0042,-0.0008,0.0027,0.004,0.0077,0.0094,0.0112,0.014,0.017,0.021,0.0244,0.029,0.0339,0.0389,0.0434,0.0397,0.0562,0.0521,0.053,0.0529,0.0555,0.0551,0.0625,0.0602,0.0601,0.0601,0.0601,0,-0.0013,0.0018,0.0042,0.0067,0.0111,0.0123,0.0171,0.0187,0.0229,0.0284,0.0282,0.0346,0.0388,0.0471,0.049,0.0571,0.0615,0.0558,0.0573,0.0559,0.0553,0.0548,0.0531,0.0606,0.0605,0.0604,0.0603,0,0.002,0.0034,0.008,0.0115,0.0128,0.0161,0.0209,0.0246,0.0273,0.035,0.037,0.0435,0.0547,0.0585,0.0691,0.0659,0.0722,0.0732,0.0707,0.0713,0.0651,0.0634,0.0762,0.0757,0.077,0.077,0.077,0,0.0047,0.0071,0.0115,0.0141,0.0158,0.0203,0.0236,0.0267,0.0309,0.0412,0.0461,0.0575,0.0676,0.0807,0.0793,0.0844,0.0799,0.0815,0.0723,0.067,0.0664,0.0658,0.0644,0.0778,0.0778,0.0778,0.0778,0,0.0092,0.01,0.0134,0.018,0.0217,0.0265,0.0314,0.0356,0.041,0.0487,0.0613,0.0708,0.0822,0.0888,0.0908,0.0902,0.0794,0.0818,0.0792,0.0704,0.0682,0.0675,0.0654,0.0781,0.078,0.078,0.078,0.078,0.0122,0.0146,0.0178,0.0222,0.0265,0.0319,0.0365,0.0435,0.0525,0.066,0.0731,0.0897,0.0934,0.0978,0.0953,0.0837,0.0846,0.0776,0.0774,0.0784,0.0735,0.0704,0.0812,0.0812,0.0812,0.0812,0.0812,0,0.0158,0.0176,0.0218,0.0268,0.0313,0.0331,0.0412,0.0472,0.0592,0.0756,0.0889,0.1021,0.1046,0.1009,0.0871,0.0799,0.077,0.0758,0.0756,0.0751,0.0761,0.071,0.0766,0.0766,0.0766,0.0766,0.0766,0.0766,0.018,0.0215,0.0228,0.0294,0.0331,0.0399,0.0446,0.0559,0.0683,0.089,0.1023,0.1126,0.106,0.0934,0.0796,0.0762,0.0733,0.0737,0.0723,0.071,0.071,0.0711,0.0659,0.0703,0.0703,0.0712,0.0712,0.0712]}],[{"header":{"parameterUnit":"m.s-1","parameterCategory":2,"la1":30.2991,"la2":30.254,"lo1":-89.0895,"lo2":-89.0444,"dy":0.0017,"dx":0.0017,"nx":28,"ny":28,"refTime":"2025-12-18T09:00:00:Z","depth":"2","parameterNumber":2,"parameterNumberName":"U-component_of_CURRENTS"},"data":[0,0,0,0,0,0,0,0,0,0,0,0,0,0,0,0,0,0,0,0,0,0,0,0,0,0,0,0,0,0,0,0,0,0,0,0,0,0,0,0,0,0,0,0,0,0,0,0,0,0,0,0,0,0,0,0,0,0,0.1048,0.1048,0,0.102,0.1019,0.1019,0.1011,0.1011,0.1011,0.1011,0.1043,0.1044,0.1044,0,0,0,0,0,0,0,0,0,0,0,0,0,0.1067,0.1066,0.1048,0.1048,0.1047,0.102,0.1019,0.1019,0.1011,0.1011,0.1011,0.1012,0.1043,0.1044,0.1044,0,0,0,0,0,0,0,0,0,0,0,0,0,0.105,0.1066,0.1048,0.1041,0.104,0.102,0.1019,0.1019,0.1011,0.1011,0.1011,0.1012,0.1043,0.1044,0.1044,0.1043,0,0,0.1047,0.1048,0,0,0,0,0,0,0,0,0.1051,0.1049,0.1042,0.1041,0.104,0.102,0.1037,0.103,0.1011,0.1021,0.1011,0.1012,0.1041,0.1042,0.1034,0.1045,0.1046,0.1047,0.1048,0.1048,0.1049,0,0,0,0,0,0,0,0.1052,0.105,0.1036,0.1042,0.1041,0.1029,0.1027,0.1035,0.103,0.102,0.102,0.1018,0.1041,0.1033,0.1035,0.1047,0.1047,0.1048,0.1049,0.1049,0.1096,0.1097,0,0,0,0,0,0,0.1058,0.1051,0.1037,0.1035,0.1047,0.1029,0.1026,0.1025,0.1029,0.1029,0.1017,0.1017,0.1031,0.1034,0.1036,0.1087,0.1048,0.1049,0.105,0.1095,0.1096,0.1097,0,0,0,0,0,0,0.1059,0.1057,0.1038,0.1043,0.104,0.1028,0.1027,0.1025,0.1037,0.1026,0.1028,0.1034,0.1032,0.1035,0.1066,0.1087,0.105,0.1051,0.1094,0.1095,0.1096,0.1156,0,0,0,0,0,0,0.1059,0.1058,0.1057,0.1044,0.104,0.1044,0.1026,0.1024,0.1034,0.1034,0.1041,0.1042,0.1032,0.1065,0.1067,0.1087,0.1051,0.1094,0.1095,0.1096,0.1153,0.1159,0.1164,0,0,0,0,0,0.106,0.1052,0.1057,0.1055,0.104,0.1044,0.1042,0.1033,0.1035,0.1045,0.1053,0.1043,0.1074,0.1067,0.1069,0.109,0.1093,0.1094,0.1096,0.1151,0.1158,0.1164,0,0,0,0,0,0,0.1052,0.105,0.1055,0.1046,0.1057,0.1044,0.1044,0.1048,0.106,0.1061,0.106,0.1063,0.1096,0.1084,0.1077,0.1105,0.1079,0.1081,0.112,0.1126,0.1131,0.1136,0.1052,0,0,0,0,0,0.1053,0.1059,0.1057,0.1058,0.1061,0.1061,0.1061,0.106,0.1066,0.1072,0.1077,0.1082,0.1099,0.1108,0.1113,0.1135,0.1139,0.1146,0.1151,0.1156,0.116,0.1191,0.12,0.1102,0.1102,0.1102,0,0,0.1055,0.1054,0.1058,0.106,0.1063,0.107,0.1062,0.1069,0.1082,0.1074,0.1096,0.1106,0.111,0.1133,0.1145,0.113,0.1187,0.1158,0.1162,0.1164,0.1194,0.1203,0.1212,0.1103,0.1103,0.1102,0,0,0.1057,0.1059,0.1063,0.1074,0.1082,0.1082,0.1094,0.1094,0.1102,0.1127,0.1126,0.1156,0.1168,0.1178,0.1186,0.1225,0.1218,0.122,0.1251,0.1281,0.129,0.1298,0.1324,0.1333,0.1219,0.1219,0.1219,0,0.1065,0.1063,0.1067,0.1075,0.1081,0.1096,0.1102,0.1115,0.1128,0.1137,0.1142,0.1177,0.1191,0.1225,0.1243,0.124,0.1251,0.1229,0.129,0.1298,0.1304,0.1329,0.1339,0.1222,0.1222,0.1221,0.1221,0,0.1061,0.1073,0.1079,0.1097,0.1102,0.1116,0.1129,0.1148,0.1162,0.117,0.121,0.1233,0.1255,0.1265,0.1273,0.1324,0.1315,0.1299,0.1277,0.1318,0.1342,0.1351,0.1226,0.1225,0.1224,0.1224,0,0,0.1063,0.1075,0.1085,0.1097,0.1114,0.1122,0.1147,0.1168,0.1197,0.1216,0.1251,0.1293,0.1308,0.1318,0.1332,0.1363,0.1438,0.1358,0.1358,0.139,0.1507,0.1402,0.1401,0.1433,0.1435,0.1436,0.1507,0,0.1072,0.1081,0.1085,0.1115,0.1119,0.1141,0.1171,0.1192,0.1218,0.1258,0.1285,0.1333,0.1327,0.1363,0.139,0.1434,0.1463,0.142,0.1456,0.1457,0.1364,0.1408,0.1251,0.1291,0.1516,0.1517,0.1518,0,0.1067,0.1075,0.1085,0.1123,0.113,0.1156,0.1198,0.1227,0.1278,0.1302,0.1337,0.1366,0.1434,0.1423,0.1502,0.1475,0.1498,0.1518,0.1521,0.1406,0.1368,0.1284,0.1299,0.1533,0.1532,0.1531,0.153,0,0.1051,0.1083,0.1089,0.1101,0.1138,0.1162,0.1195,0.1239,0.1265,0.1343,0.137,0.1435,0.1479,0.1524,0.1565,0.1551,0.1635,0.1618,0.1536,0.1529,0.1391,0.1368,0.1664,0.1664,0.1663,0.1663,0.1663,0,0.1051,0.107,0.1092,0.1105,0.1135,0.1163,0.1215,0.1254,0.1312,0.1349,0.14,0.1435,0.1508,0.1553,0.1588,0.1586,0.1653,0.1551,0.1541,0.1406,0.1384,0.1584,0.1574,0.1666,0.1665,0.1665,0.1664,0,0.1043,0.1052,0.1067,0.111,0.1126,0.115,0.1218,0.1251,0.1315,0.1366,0.1398,0.1455,0.1508,0.1553,0.1631,0.1599,0.1628,0.1604,0.1435,0.1403,0.15,0.1492,0.1535,0.1532,0.1529,0.1527,0.1525,0,0.1035,0.1037,0.1069,0.1071,0.1098,0.1142,0.117,0.1242,0.1268,0.1367,0.1376,0.1446,0.1448,0.1495,0.1477,0.1494,0.1565,0.1354,0.1287,0.1501,0.1488,0.1484,0.148,0.1146,0.1141,0.1137,0.1134,0,0.1019,0.1032,0.1052,0.1055,0.1074,0.11,0.115,0.1161,0.1247,0.1282,0.1309,0.1327,0.1337,0.1253,0.126,0.1254,0.134,0.127,0.156,0.1182,0.1133,0.112,0.113,0.1099,0.1102,0.1105,0.1107,0.1108,0.1011,0.1022,0.1035,0.1041,0.1055,0.1055,0.1054,0.1081,0.1101,0.1108,0.1172,0.113,0.1131,0.1022,0.0997,0.0983,0.1092,0.1047,0.1061,0.1078,0.0999,0.0946,0.0863,0.0865,0.0867,0.0869,0.087,0,0.0978,0.101,0.1015,0.1017,0.1007,0.1037,0.1033,0.099,0.0966,0.0958,0.0939,0.0811,0.0734,0.0765,0.0668,0.066,0.0668,0.0641,0.0647,0.0681,0.0711,0.0615,0.0377,0.0376,0.0375,0.0374,0,0,0.0965,0.0959,0.097,0.0954,0.0974,0.0936,0.0917,0.0837,0.0787,0.0678,0.0629,0.0638,0.0696,0.0513,0.0489,0.0419,0.0547,0.0388,0.0778,0.0817,0.0846,0.0934,0.0822,0,0,0,0,0]},{"header":{"parameterUnit":"m.s-1","parameterCategory":2,"la1":30.2991,"la2":30.254,"lo1":-89.0895,"lo2":-89.0444,"dy":0.0017,"dx":0.0017,"nx":28,"ny":28,"refTime":"2025-12-18T09:00:00:Z","depth":"2","parameterNumber":3,"parameterNumberName":"V-component_of_CURRENTS"},"data":[0,0,0,0,0,0,0,0,0,0,0,0,0,0,0,0,0,0,0,0,0,0,0,0,0,0,0,0,0,0,0,0,0,0,0,0,0,0,0,0,0,0,0,0,0,0,0,0,0,0,0,0,0,0,0,0,0,0,0.0033,0.0033,0,0.0052,0.0052,0.0052,0.0048,0.0048,0.0048,0.0047,0.0042,0.0042,0.0042,0,0,0,0,0,0,0,0,0,0,0,0,0,0.0014,0.0015,0.0033,0.0033,0.0033,0.0052,0.0052,0.0052,0.0048,0.0048,0.0047,0.0047,0.0042,0.0042,0.0042,0,0,0,0,0,0,0,0,0,0,0,0,0,0.0027,0.0015,0.0033,0.0033,0.0034,0.0052,0.0052,0.0052,0.0048,0.0048,0.0047,0.0047,0.0042,0.0042,0.0042,0.0054,0,0,0.0043,0.0043,0,0,0,0,0,0,0,0,0.0026,0.0027,0.0033,0.0033,0.0034,0.0047,0.0043,0.0052,0.0049,0.0043,0.0047,0.0047,0.0042,0.0042,0.0047,0.0054,0.0054,0.0043,0.0043,0.0043,0.0043,0,0,0,0,0,0,0,0.0025,0.0027,0.004,0.0033,0.0034,0.004,0.0041,0.0045,0.0044,0.0043,0.0043,0.0045,0.0042,0.0047,0.0047,0.0053,0.0043,0.0043,0.0043,0.0044,0.0062,0.0062,0,0,0,0,0,0,0.0022,0.0026,0.0039,0.0041,0.0029,0.0041,0.0042,0.0043,0.0045,0.0045,0.0046,0.0045,0.0047,0.0046,0.0046,0.0054,0.0043,0.0044,0.0044,0.0062,0.0062,0.0062,0,0,0,0,0,0,0.0022,0.0023,0.0039,0.0034,0.0036,0.0042,0.0043,0.0044,0.0042,0.0047,0.0046,0.0042,0.0046,0.0046,0.0047,0.0053,0.0044,0.0044,0.0061,0.0062,0.0062,0.0072,0,0,0,0,0,0,0.0021,0.0023,0.0023,0.0034,0.0036,0.005,0.0044,0.0045,0.0045,0.0044,0.0044,0.0043,0.0046,0.0047,0.0047,0.0054,0.0044,0.0061,0.0061,0.0062,0.0071,0.0073,0.0074,0,0,0,0,0,0.0021,0.0029,0.0023,0.0025,0.0036,0.005,0.0053,0.0055,0.0045,0.005,0.0046,0.0043,0.0051,0.0047,0.0048,0.0054,0.0061,0.0061,0.0062,0.0071,0.0072,0.0074,0,0,0,0,0,0,0.0025,0.003,0.0023,0.0033,0.0039,0.005,0.0056,0.0052,0.0053,0.005,0.0046,0.0046,0.005,0.0051,0.0046,0.0062,0.0056,0.0057,0.0062,0.0064,0.0065,0.008,0.0044,0,0,0,0,0,0.0024,0.0027,0.0034,0.0039,0.0043,0.0045,0.005,0.0052,0.0055,0.0055,0.0054,0.0054,0.0056,0.0057,0.0062,0.0069,0.0072,0.0074,0.0076,0.0077,0.009,0.0095,0.0098,0.0065,0.0065,0.0065,0,0,0.0026,0.0029,0.003,0.0039,0.0043,0.0057,0.0047,0.0057,0.0066,0.0054,0.0064,0.0058,0.0058,0.0068,0.007,0.0068,0.0086,0.0078,0.0079,0.0091,0.0096,0.0099,0.0102,0.0065,0.0065,0.0065,0,0,0.0038,0.0034,0.0043,0.005,0.0059,0.0063,0.0064,0.0073,0.0074,0.0081,0.0074,0.0073,0.0077,0.0082,0.0083,0.0095,0.0092,0.0093,0.0114,0.0118,0.0121,0.0124,0.0124,0.0127,0.0095,0.0095,0.0095,0,0.0037,0.0051,0.0048,0.0063,0.0074,0.0065,0.0084,0.0087,0.0094,0.0102,0.0086,0.0098,0.0087,0.0106,0.0105,0.0099,0.01,0.0106,0.012,0.0123,0.0126,0.0125,0.0128,0.0096,0.0096,0.0096,0.0096,0,0.0063,0.0071,0.0079,0.0091,0.0103,0.0117,0.0124,0.013,0.0124,0.013,0.0142,0.013,0.0141,0.0131,0.0118,0.0135,0.0128,0.0119,0.0116,0.013,0.0128,0.0131,0.0097,0.0096,0.0096,0.0096,0,0,0.0066,0.0091,0.0092,0.0105,0.012,0.0135,0.0151,0.0171,0.0185,0.0183,0.0207,0.0194,0.0188,0.0189,0.0174,0.0171,0.0172,0.0151,0.0151,0.0152,0.0181,0.0175,0.0177,0.0165,0.0165,0.0166,0.017,0,0.0084,0.0117,0.0127,0.0157,0.0176,0.0181,0.0198,0.0215,0.0219,0.0239,0.0232,0.0243,0.021,0.021,0.0205,0.0186,0.0181,0.0172,0.0169,0.0169,0.0162,0.0181,0.0185,0.019,0.0173,0.0173,0.0173,0,0.0106,0.0126,0.0162,0.0195,0.0205,0.022,0.0253,0.027,0.0292,0.0296,0.0309,0.0303,0.0306,0.0269,0.0255,0.025,0.0219,0.0197,0.0197,0.0195,0.0169,0.0175,0.0195,0.0178,0.0177,0.0177,0.0177,0,0.0116,0.015,0.0181,0.0192,0.0227,0.0244,0.0261,0.0287,0.0315,0.0335,0.0359,0.0358,0.0369,0.0333,0.0289,0.0271,0.0272,0.0242,0.021,0.0209,0.0215,0.0214,0.0232,0.0232,0.0232,0.0232,0.0232,0,0.0134,0.0155,0.0185,0.0201,0.024,0.026,0.03,0.0315,0.0354,0.0406,0.0391,0.0432,0.0386,0.0382,0.0321,0.0285,0.0299,0.0226,0.0216,0.0217,0.0216,0.0208,0.0206,0.0232,0.0232,0.0232,0.0232,0,0.0137,0.0157,0.0194,0.0232,0.0245,0.0273,0.0327,0.0363,0.0389,0.0456,0.0469,0.0498,0.0496,0.0444,0.0398,0.0339,0.029,0.027,0.0273,0.0264,0.0212,0.0209,0.0234,0.0234,0.0234,0.0234,0.0234,0,0.0144,0.0162,0.021,0.0239,0.0255,0.0297,0.0334,0.0374,0.0423,0.0506,0.0551,0.0572,0.0603,0.0536,0.0437,0.0345,0.0319,0.0276,0.0237,0.0227,0.0215,0.0212,0.021,0.0244,0.0244,0.0244,0.0244,0,0.0157,0.0171,0.0204,0.0258,0.0301,0.0353,0.041,0.0455,0.0524,0.059,0.0683,0.0711,0.0662,0.0588,0.0459,0.0385,0.0287,0.0273,0.0279,0.0241,0.0237,0.0224,0.0222,0.0245,0.0244,0.0244,0.0244,0.0244,0.0167,0.0189,0.0234,0.0286,0.0337,0.0407,0.0456,0.0534,0.0627,0.0722,0.0759,0.078,0.0701,0.0526,0.0438,0.0315,0.0308,0.0241,0.0241,0.0241,0.024,0.0236,0.0243,0.0243,0.0243,0.0243,0.0243,0,0.0188,0.0213,0.0262,0.0332,0.0392,0.0412,0.0509,0.057,0.0683,0.0742,0.0811,0.0715,0.0648,0.0535,0.0365,0.0276,0.0259,0.0233,0.0235,0.0235,0.0235,0.0233,0.0234,0.0234,0.0234,0.0234,0,0,0.0205,0.0252,0.0274,0.0368,0.0411,0.049,0.0543,0.0637,0.0689,0.0746,0.0736,0.0748,0.0635,0.0508,0.0409,0.0319,0.0287,0.0291,0.0306,0.032,0.0321,0.0247,0.0246,0,0,0,0,0]}],[{"header":{"parameterUnit":"m.s-1","parameterCategory":2,"la1":30.2991,"la2":30.254,"lo1":-89.0895,"lo2":-89.0444,"dy":0.0017,"dx":0.0017,"nx":28,"ny":28,"refTime":"2025-12-18T09:00:00:Z","depth":"4","parameterNumber":2,"parameterNumberName":"U-component_of_CURRENTS"},"data":[0,0,0,0,0,0,0,0,0,0,0,0,0,0,0,0,0,0,0,0,0,0,0,0,0,0,0,0,0,0,0,0,0,0,0,0,0,0,0,0,0,0,0,0,0,0,0,0,0,0,0,0,0,0,0,0,0,0,0.0392,0.0392,0,0.0405,0.0405,0.0405,0.0428,0.0428,0.0429,0.0429,0.0472,0.0473,0.0473,0,0,0,0,0,0,0,0,0,0,0,0,0,0.0369,0.0369,0.0392,0.0392,0.0392,0.0405,0.0405,0.0405,0.0428,0.0428,0.0429,0.0429,0.0472,0.0472,0.0473,0,0,0,0,0,0,0,0,0,0,0,0,0,0.038,0.0369,0.0392,0.0405,0.0406,0.0405,0.0405,0.0405,0.0428,0.0428,0.0429,0.043,0.0471,0.0472,0.0473,0.0467,0,0,0.0477,0.0477,0,0,0,0,0,0,0,0,0.0379,0.0381,0.0403,0.0404,0.0405,0.0415,0.0413,0.0427,0.0428,0.0419,0.0429,0.043,0.0455,0.0458,0.0458,0.0469,0.0471,0.0477,0.0478,0.0478,0.0478,0,0,0,0,0,0,0,0.0378,0.038,0.0397,0.0403,0.0404,0.0404,0.0407,0.0415,0.0434,0.042,0.0422,0.0423,0.0456,0.0457,0.046,0.0472,0.0477,0.0478,0.0479,0.0479,0.0535,0.0536,0,0,0,0,0,0,0.0377,0.0379,0.0396,0.0397,0.0394,0.0404,0.0407,0.0411,0.0433,0.0437,0.0423,0.0424,0.0455,0.0458,0.0461,0.0501,0.0478,0.0479,0.048,0.0534,0.0535,0.0536,0,0,0,0,0,0,0.0377,0.0379,0.0396,0.0388,0.0391,0.0404,0.0409,0.0411,0.0425,0.0435,0.0439,0.0435,0.0456,0.046,0.0483,0.0502,0.048,0.0481,0.0533,0.0534,0.0536,0.0552,0,0,0,0,0,0,0.0376,0.0378,0.0385,0.0388,0.0391,0.0402,0.0408,0.0411,0.0424,0.0427,0.0447,0.0451,0.0456,0.0482,0.0484,0.0503,0.0481,0.0532,0.0534,0.0535,0.0551,0.0554,0.0557,0,0,0,0,0,0.0375,0.0376,0.0385,0.0387,0.0398,0.0402,0.0403,0.0415,0.0424,0.043,0.0448,0.0451,0.0494,0.0483,0.0486,0.0505,0.0531,0.0533,0.0535,0.055,0.0554,0.0557,0,0,0,0,0,0,0.0367,0.0379,0.0388,0.0393,0.0402,0.0406,0.0414,0.042,0.0438,0.0448,0.0457,0.0462,0.0492,0.0495,0.0483,0.0527,0.0515,0.0517,0.0525,0.0528,0.0531,0.0522,0.0482,0,0,0,0,0,0.0369,0.0377,0.0386,0.0392,0.0399,0.041,0.0415,0.0424,0.0437,0.0445,0.046,0.048,0.0499,0.0511,0.0526,0.0545,0.0555,0.0561,0.0565,0.0567,0.0563,0.0609,0.0615,0.0542,0.0542,0.0542,0,0,0.0364,0.0375,0.0378,0.0391,0.0403,0.041,0.0415,0.0428,0.0439,0.0447,0.0474,0.0491,0.0507,0.0533,0.0546,0.0539,0.0591,0.0569,0.0571,0.0566,0.0611,0.0618,0.0625,0.0543,0.0543,0.0543,0,0,0.0359,0.0376,0.038,0.0391,0.041,0.0418,0.0425,0.0439,0.0454,0.0479,0.049,0.0518,0.0544,0.0558,0.0569,0.0596,0.0606,0.0606,0.0614,0.0659,0.0666,0.0671,0.0683,0.069,0.0608,0.0608,0.0608,0,0.0358,0.0365,0.0381,0.0391,0.0401,0.0423,0.0431,0.0445,0.0467,0.0482,0.0493,0.0541,0.0557,0.0584,0.0596,0.0603,0.0621,0.0598,0.0663,0.0669,0.0675,0.0686,0.0693,0.0609,0.0609,0.0608,0.0608,0,0.0353,0.0365,0.0371,0.0393,0.0405,0.0417,0.044,0.0462,0.0488,0.0503,0.0544,0.0567,0.0598,0.0608,0.0612,0.0656,0.0652,0.0663,0.0653,0.0683,0.0693,0.07,0.061,0.061,0.0609,0.0609,0,0,0.0344,0.0363,0.0369,0.0376,0.041,0.0416,0.0448,0.0475,0.0499,0.0531,0.0563,0.0598,0.0618,0.063,0.0643,0.0674,0.0728,0.0686,0.0688,0.0694,0.0811,0.0728,0.0728,0.0759,0.076,0.0761,0.0798,0,0.0342,0.0349,0.0366,0.0379,0.0386,0.042,0.0444,0.0475,0.0515,0.0552,0.0586,0.0622,0.0625,0.065,0.0683,0.0719,0.0749,0.0715,0.0783,0.0784,0.0705,0.0735,0.0767,0.0803,0.0805,0.0806,0.0807,0,0.0337,0.0343,0.0352,0.0371,0.038,0.0396,0.0447,0.0472,0.0531,0.0564,0.061,0.064,0.0685,0.0693,0.0764,0.0746,0.0781,0.0803,0.0805,0.0726,0.0715,0.077,0.082,0.0819,0.0818,0.0817,0.0816,0,0.0318,0.0334,0.034,0.0348,0.0376,0.0397,0.0423,0.048,0.0506,0.0581,0.0614,0.0669,0.071,0.0761,0.0808,0.0801,0.0883,0.0883,0.0834,0.0827,0.0883,0.0876,0.0942,0.0942,0.0942,0.0942,0.0942,0,0.0306,0.0313,0.0333,0.0336,0.0353,0.0384,0.0418,0.046,0.0518,0.0547,0.0621,0.0651,0.0736,0.0789,0.0823,0.0841,0.0903,0.0832,0.0837,0.0887,0.0881,0.0887,0.088,0.0943,0.0943,0.0942,0.0942,0,0.0283,0.0299,0.0306,0.0332,0.0344,0.0362,0.0406,0.0427,0.0495,0.0543,0.0569,0.0655,0.0721,0.0785,0.087,0.0853,0.0885,0.0881,0.0914,0.092,0.0791,0.0785,0.0818,0.0816,0.0814,0.0812,0.0811,0,0.027,0.0271,0.0295,0.0304,0.0321,0.0347,0.0362,0.0417,0.044,0.0529,0.0544,0.0632,0.0684,0.0732,0.0804,0.0856,0.0854,0.0854,0.0827,0.078,0.0781,0.0778,0.0775,0.0807,0.0807,0.0806,0.0806,0,0.0245,0.0261,0.0261,0.0275,0.0293,0.0299,0.0327,0.0336,0.0399,0.0463,0.0507,0.0553,0.0622,0.0684,0.0737,0.0772,0.0842,0.0832,0.0836,0.0811,0.0767,0.0769,0.0769,0.0798,0.0799,0.08,0.08,0,0.023,0.0223,0.0226,0.0236,0.025,0.0244,0.0266,0.0286,0.0313,0.0412,0.042,0.0523,0.0601,0.064,0.0684,0.0715,0.0704,0.0676,0.0688,0.0697,0.0643,0.0567,0.0541,0,0,0,0,0,0.0209,0.0192,0.0187,0.0185,0.0192,0.0201,0.0233,0.0257,0.0319,0.0331,0.0374,0.0435,0.0502,0.0553,0.0564,0.0634,0.0708,0.0641,0.068,0.0758,0.0766,0.0715,0,0,0,0,0,0,0.0195,0.0188,0.0167,0.0134,0.0125,0.0123,0.0142,0.0188,0.0199,0.0277,0.0324,0.0384,0.0469,0.0493,0.0549,0.0565,0.0573,0.0703,0.0701,0.0753,0.0761,0.0767,0.0718,0,0,0,0,0]},{"header":{"parameterUnit":"m.s-1","parameterCategory":2,"la1":30.2991,"la2":30.254,"lo1":-89.0895,"lo2":-89.0444,"dy":0.0017,"dx":0.0017,"nx":28,"ny":28,"refTime":"2025-12-18T09:00:00:Z","depth":"4","parameterNumber":3,"parameterNumberName":"V-component_of_CURRENTS"},"data":[0,0,0,0,0,0,0,0,0,0,0,0,0,0,0,0,0,0,0,0,0,0,0,0,0,0,0,0,0,0,0,0,0,0,0,0,0,0,0,0,0,0,0,0,0,0,0,0,0,0,0,0,0,0,0,0,0,0,0.0146,0.0146,0,0.0158,0.0158,0.0158,0.0156,0.0156,0.0156,0.0156,0.0164,0.0164,0.0165,0,0,0,0,0,0,0,0,0,0,0,0,0,0.013,0.0131,0.0146,0.0146,0.0146,0.0158,0.0158,0.0158,0.0156,0.0156,0.0156,0.0155,0.0164,0.0164,0.0165,0,0,0,0,0,0,0,0,0,0,0,0,0,0.014,0.0131,0.0146,0.0146,0.0146,0.0158,0.0158,0.0158,0.0156,0.0156,0.0156,0.0155,0.0163,0.0164,0.0165,0.0176,0,0,0.0167,0.0167,0,0,0,0,0,0,0,0,0.0139,0.014,0.0146,0.0146,0.0146,0.0155,0.0155,0.0164,0.0156,0.0153,0.0156,0.0155,0.016,0.0161,0.0165,0.0176,0.0176,0.0167,0.0167,0.0167,0.0168,0,0,0,0,0,0,0,0.0138,0.014,0.0151,0.0146,0.0146,0.0149,0.015,0.0157,0.0159,0.0153,0.0153,0.0154,0.0161,0.0164,0.0165,0.0177,0.0167,0.0167,0.0168,0.0168,0.0193,0.0193,0,0,0,0,0,0,0.0136,0.0139,0.015,0.0151,0.0141,0.0149,0.015,0.0153,0.0159,0.0159,0.0154,0.0154,0.0163,0.0164,0.0165,0.0185,0.0167,0.0168,0.0168,0.0192,0.0193,0.0193,0,0,0,0,0,0,0.0136,0.0137,0.015,0.0145,0.0147,0.015,0.0153,0.0153,0.0157,0.0159,0.016,0.0157,0.0163,0.0164,0.0174,0.0185,0.0168,0.0169,0.0192,0.0192,0.0193,0.0219,0,0,0,0,0,0,0.0135,0.0137,0.0138,0.0145,0.0147,0.0159,0.0153,0.0154,0.0157,0.0157,0.0162,0.0162,0.0163,0.0173,0.0175,0.0185,0.0169,0.0192,0.0192,0.0193,0.0218,0.0221,0.0223,0,0,0,0,0,0.0135,0.0142,0.0138,0.014,0.0149,0.016,0.0161,0.0162,0.0158,0.0163,0.0166,0.0162,0.0177,0.0174,0.0176,0.0187,0.0191,0.0192,0.0193,0.0217,0.022,0.0223,0,0,0,0,0,0,0.0138,0.0143,0.0139,0.0147,0.0152,0.0159,0.0164,0.0164,0.017,0.0169,0.0169,0.017,0.0181,0.0179,0.0176,0.0194,0.0183,0.0184,0.0201,0.0204,0.0206,0.021,0.017,0,0,0,0,0,0.0138,0.0144,0.0148,0.0154,0.0157,0.016,0.0164,0.0165,0.0171,0.0173,0.0176,0.0179,0.0186,0.019,0.0195,0.0208,0.0194,0.0214,0.0216,0.0218,0.0222,0.0207,0.0208,0.0195,0.0195,0.0195,0,0,0.0142,0.0144,0.0148,0.0155,0.0158,0.0169,0.0161,0.0171,0.0182,0.0174,0.0189,0.0188,0.019,0.0204,0.0209,0.0204,0.0214,0.0219,0.0221,0.0223,0.0208,0.0209,0.021,0.0195,0.0195,0.0195,0,0,0.0154,0.0153,0.0162,0.0168,0.0174,0.0177,0.018,0.0188,0.0192,0.0206,0.0202,0.0207,0.0218,0.0222,0.0226,0.0243,0.0225,0.0242,0.0261,0.0247,0.0248,0.0248,0.0228,0.0227,0.0245,0.0245,0.0245,0,0.0156,0.0169,0.0167,0.0178,0.0187,0.0182,0.0198,0.0204,0.0214,0.0222,0.0214,0.0227,0.0228,0.0245,0.0252,0.025,0.0234,0.0252,0.025,0.025,0.025,0.0229,0.0228,0.0247,0.0246,0.0246,0.0246,0,0.0176,0.0187,0.0194,0.0205,0.0215,0.0228,0.0235,0.0243,0.0244,0.025,0.0263,0.0261,0.0268,0.0269,0.0268,0.0275,0.026,0.0253,0.0243,0.0253,0.023,0.0228,0.0249,0.0248,0.0248,0.0247,0,0,0.0178,0.0203,0.0206,0.0218,0.0232,0.0243,0.0262,0.0279,0.0291,0.0293,0.0308,0.0316,0.0308,0.031,0.0305,0.0295,0.0283,0.0277,0.0276,0.0258,0.0244,0.0232,0.0228,0.0273,0.0273,0.0273,0.0226,0,0.0193,0.0222,0.0233,0.0262,0.0276,0.0283,0.0303,0.0317,0.0323,0.0334,0.0329,0.034,0.0326,0.0328,0.0317,0.0295,0.0279,0.0296,0.0236,0.0234,0.0223,0.0226,0.0272,0.0224,0.0223,0.0223,0.0223,0,0.0207,0.0225,0.0257,0.0291,0.0298,0.0317,0.0344,0.0362,0.0375,0.0378,0.0381,0.0373,0.037,0.0349,0.0311,0.0322,0.0285,0.0261,0.0258,0.0238,0.0219,0.0212,0.0218,0.0218,0.0219,0.0219,0.0219,0,0.0206,0.0242,0.0269,0.028,0.0315,0.0335,0.0357,0.0377,0.0397,0.0407,0.0414,0.0402,0.0398,0.0355,0.0309,0.0308,0.0255,0.0246,0.0198,0.0196,0.0209,0.0208,0.0209,0.0209,0.0209,0.0209,0.0209,0,0.0214,0.0236,0.0272,0.0288,0.0323,0.0347,0.0384,0.0399,0.0425,0.0449,0.0438,0.0442,0.0398,0.0365,0.0314,0.0251,0.0256,0.0201,0.0185,0.022,0.0222,0.0206,0.0207,0.0207,0.0208,0.0208,0.0208,0,0.0207,0.023,0.0263,0.0307,0.0324,0.035,0.0405,0.0432,0.0451,0.0479,0.0484,0.0473,0.0431,0.0377,0.0308,0.0261,0.02,0.0172,0.0212,0.0199,0.0146,0.0149,0.0114,0.0114,0.0113,0.0112,0.0112,0,0.0207,0.0222,0.0273,0.0296,0.032,0.0364,0.0398,0.0438,0.0468,0.0495,0.0508,0.0482,0.0463,0.0356,0.0297,0.0196,0.0178,0.0141,0.0146,0.015,0.0137,0.0141,0.0144,0.0111,0.0111,0.0111,0.011,0,0.0204,0.0221,0.0251,0.0299,0.034,0.0386,0.0439,0.0459,0.0505,0.0521,0.0519,0.0475,0.0426,0.035,0.0273,0.02,0.0166,0.0134,0.0135,0.0139,0.0145,0.0134,0.0138,0.0108,0.0109,0.0109,0.0109,0,0.0202,0.022,0.026,0.0303,0.0351,0.04,0.0428,0.0467,0.0497,0.0527,0.0521,0.0476,0.0454,0.0351,0.0281,0.0211,0.019,0.016,0.0159,0.016,0.019,0.0205,0.0173,0,0,0,0,0,0.0201,0.0225,0.0264,0.0316,0.0363,0.0396,0.0454,0.0481,0.0518,0.0516,0.0521,0.0474,0.0379,0.0344,0.027,0.0264,0.0176,0.0174,0.014,0.0096,0.0098,0.0124,0,0,0,0,0,0,0.0202,0.0236,0.0261,0.0318,0.0354,0.0414,0.0452,0.048,0.048,0.05,0.0451,0.0442,0.0351,0.0417,0.0263,0.0245,0.021,0.0137,0.0135,0.0094,0.0097,0.0099,0.0126,0,0,0,0,0]}]]